Regional Weather Roundup
Issued by NWS

Home | Current Version | Previous Version | Text Only | Print | Product List | Glossary On
Versions: 1 2 3 4 5 6 7 8 9 10 11 12 13 14 15 16 17 18 19 20 21 22 23 24 25 26 27 28 29 30 31 32 33 34 35 36 37 38 39 40 41 42 43 44 45 46 47 48 49 50
000
ASUS43 KBIS 192220
RWRND

NORTH DAKOTA REGIONAL WEATHER ROUNDUP
NATIONAL WEATHER SERVICE BISMARCK ND
500 PM CDT TUE AUG 19 2014

NOTE: "FAIR" INDICATES FEW OR NO CLOUDS BELOW 12,000 FEET WITH NO
SIGNIFICANT WEATHER AND/OR OBSTRUCTIONS TO VISIBILITY.


NDZ001>003-009>011-017-192300-
NORTHWEST NORTH DAKOTA

CITY           SKY/WX    TMP DP  RH WIND       PRES   REMARKS
WILLISTON      SUNNY     91  53  27 SE10      29.68F
MINOT          MOSUNNY   85  55  35 E3        29.72S
MINOT AFB      SUNNY     85  55  35 VRB2      29.71S
$$

NDZ018>021-031>035-040>046-192300-
SOUTHWEST NORTH DAKOTA

CITY           SKY/WX    TMP DP  RH WIND       PRES   REMARKS
BISMARCK       SUNNY     87  59  38 S8        29.74F
DICKINSON      SUNNY     86  59  39 S13       29.72F
GARRISON         N/A     83  59  44 VRB5      29.74S
HETTINGER ARPT SUNNY     86  54  33 SE8       29.75F
$$

NDZ004>008-012>016-024-026-027-054-192300-
NORTHEAST NORTH DAKOTA

CITY           SKY/WX    TMP DP  RH WIND       PRES   REMARKS
GRAND FORKS    MOSUNNY   82  63  52 CALM      29.73S
GRND FRKS AFB  SUNNY     81  66  58 VRB2      29.74F
DEVILS LAKE    SUNNY     82  61  47 S6        29.73S
$$

NDZ022-023-025-028>030-036>039-047>053-192300-
SOUTHEAST NORTH DAKOTA

CITY           SKY/WX    TMP DP  RH WIND       PRES   REMARKS
FARGO          MOSUNNY   81  63  54 VRB3      29.74S
JAMESTOWN      PTSUNNY   81  61  50 SW3       29.75S
$$



USA.gov is the U.S. government's official web portal to all federal, state and local government web resources and services.